BEIDOU-3 G4 (C62)

Last updated on Mon Oct 20 2025 00:03:25 GMT+0000 (Coordinated Universal Time)

1 56564U 23066A 25292.22762370 -.00000116 00000+0 00000+0 0 9999 2 56564 0.9393 298.0530 0004792 220.5220 111.2754 1.00273650 8973
UTC large
Height (km)
Speed (km/s)
/
Latitude / Longitude
Inclination (degrees)
Orbital Period (minutes)
Azimuth
Elevation
Range (km)
Doppler Factor

Next 0 passes for location: London (51.5072 / 0.1276)

Sorry there are no passes over London.